Year,Month,Day,Hour,Minute,Value (Times are PST for temperature in C)
2015,06,17,00,00,14.70
2015,06,17,00,01,14.70
2015,06,17,00,02,14.70
2015,06,17,00,03,14.70
2015,06,17,00,04,14.70
2015,06,17,00,05,14.70
2015,06,17,00,06,14.70
2015,06,17,00,07,14.60
2015,06,17,00,08,14.60
2015,06,17,00,09,14.60
2015,06,17,00,10,14.60
2015,06,17,00,11,14.60
2015,06,17,00,12,14.60
2015,06,17,00,13,14.50
2015,06,17,00,14,14.50
2015,06,17,00,15,14.50
2015,06,17,00,16,14.50
2015,06,17,00,17,14.50
2015,06,17,00,18,14.40
2015,06,17,00,19,14.40
2015,06,17,00,20,14.40
2015,06,17,00,21,14.40
2015,06,17,00,22,14.40
2015,06,17,00,23,14.40
2015,06,17,00,24,14.30
2015,06,17,00,25,14.30
2015,06,17,00,26,14.30
2015,06,17,00,27,14.30
2015,06,17,00,28,14.30
2015,06,17,00,29,14.30
2015,06,17,00,30,14.30
2015,06,17,00,31,14.30
2015,06,17,00,32,14.20
2015,06,17,00,33,14.20
2015,06,17,00,34,14.20
2015,06,17,00,35,14.20
2015,06,17,00,36,14.20
2015,06,17,00,37,14.20
2015,06,17,00,38,14.20
2015,06,17,00,39,14.20
2015,06,17,00,40,14.20
2015,06,17,00,41,14.20
2015,06,17,00,42,14.20
2015,06,17,00,43,14.20
2015,06,17,00,44,14.20
2015,06,17,00,45,14.20
2015,06,17,00,46,14.10
2015,06,17,00,47,14.10
2015,06,17,00,48,14.10
2015,06,17,00,49,14.10
2015,06,17,00,50,14.10
2015,06,17,00,51,14.10
2015,06,17,00,52,14.10
2015,06,17,00,53,14.10
2015,06,17,00,54,14.10
2015,06,17,00,55,14.10
2015,06,17,00,56,14.10
2015,06,17,00,57,14.10
2015,06,17,00,58,14.00
2015,06,17,00,59,14.00
2015,06,17,01,00,14.00
2015,06,17,01,01,14.00
2015,06,17,01,02,14.00
2015,06,17,01,03,14.00
2015,06,17,01,04,14.00
2015,06,17,01,05,14.00
2015,06,17,01,06,14.00
2015,06,17,01,07,14.00
2015,06,17,01,08,14.00
2015,06,17,01,09,14.10
2015,06,17,01,10,14.10
2015,06,17,01,11,14.10
2015,06,17,01,12,14.10
2015,06,17,01,13,14.10
2015,06,17,01,14,14.10
2015,06,17,01,15,14.20
2015,06,17,01,16,14.20
2015,06,17,01,17,14.30
2015,06,17,01,18,14.30
2015,06,17,01,19,14.40
2015,06,17,01,20,14.50
2015,06,17,01,21,14.60
2015,06,17,01,22,14.70
2015,06,17,01,23,14.90
2015,06,17,01,24,15.00
2015,06,17,01,25,15.20
2015,06,17,01,26,15.30
2015,06,17,01,27,15.40
2015,06,17,01,28,15.50
2015,06,17,01,29,15.60
2015,06,17,01,30,15.70
2015,06,17,01,31,15.80
2015,06,17,01,32,15.90
2015,06,17,01,33,15.90
2015,06,17,01,34,16.00
2015,06,17,01,35,16.10
2015,06,17,01,36,16.10
2015,06,17,01,37,16.10
2015,06,17,01,38,16.20
2015,06,17,01,39,16.20
2015,06,17,01,40,16.20
2015,06,17,01,41,16.30
2015,06,17,01,42,16.30
2015,06,17,01,43,16.30
2015,06,17,01,44,16.30
2015,06,17,01,45,16.30
2015,06,17,01,46,16.30
2015,06,17,01,47,16.30
2015,06,17,01,48,16.30
2015,06,17,01,49,16.30
2015,06,17,01,50,16.30
2015,06,17,01,51,16.30
2015,06,17,01,52,16.30
2015,06,17,01,53,16.30
2015,06,17,01,54,16.20
2015,06,17,01,55,16.30
2015,06,17,01,56,16.30
2015,06,17,01,57,16.30
2015,06,17,01,58,16.20
2015,06,17,01,59,16.20
2015,06,17,02,00,16.20
2015,06,17,02,01,16.20
2015,06,17,02,02,16.20
2015,06,17,02,03,16.20
2015,06,17,02,04,16.10
2015,06,17,02,05,16.10
2015,06,17,02,06,16.10
2015,06,17,02,07,16.10
2015,06,17,02,08,16.10
2015,06,17,02,09,16.00
2015,06,17,02,10,16.00
2015,06,17,02,11,16.00
2015,06,17,02,12,16.00
2015,06,17,02,13,15.90
2015,06,17,02,14,15.90
2015,06,17,02,15,15.90
2015,06,17,02,16,15.90
2015,06,17,02,17,15.80
2015,06,17,02,18,15.80
2015,06,17,02,19,15.80
2015,06,17,02,20,15.70
2015,06,17,02,21,15.70
2015,06,17,02,22,15.70
2015,06,17,02,23,15.60
2015,06,17,02,24,15.60
2015,06,17,02,25,15.50
2015,06,17,02,26,15.50
2015,06,17,02,27,15.40
2015,06,17,02,28,15.40
2015,06,17,02,29,15.30
2015,06,17,02,30,15.30
2015,06,17,02,31,15.20
2015,06,17,02,32,15.10
2015,06,17,02,33,15.10
2015,06,17,02,34,15.10
2015,06,17,02,35,15.00
2015,06,17,02,36,14.90
2015,06,17,02,37,14.90
2015,06,17,02,38,14.90
2015,06,17,02,39,14.80
2015,06,17,02,40,14.80
2015,06,17,02,41,14.80
2015,06,17,02,42,14.80
2015,06,17,02,43,14.70
2015,06,17,02,44,14.70
2015,06,17,02,45,14.70
2015,06,17,02,46,14.70
2015,06,17,02,47,14.70
2015,06,17,02,48,14.60
2015,06,17,02,49,14.60
2015,06,17,02,50,14.60
2015,06,17,02,51,14.50
2015,06,17,02,52,14.50
2015,06,17,02,53,14.50
2015,06,17,02,54,14.40
2015,06,17,02,55,14.40
2015,06,17,02,56,14.40
2015,06,17,02,57,14.30
2015,06,17,02,58,14.30
2015,06,17,02,59,14.30
2015,06,17,03,00,14.30
2015,06,17,03,01,14.30
2015,06,17,03,02,14.20
2015,06,17,03,03,14.20
2015,06,17,03,04,14.20
2015,06,17,03,05,14.20
2015,06,17,03,06,14.20
2015,06,17,03,07,14.20
2015,06,17,03,08,14.20
2015,06,17,03,09,14.10
2015,06,17,03,10,14.10
2015,06,17,03,11,14.10
2015,06,17,03,12,14.10
2015,06,17,03,13,14.10
2015,06,17,03,14,14.10
2015,06,17,03,15,14.00
2015,06,17,03,16,14.00
2015,06,17,03,17,14.00
2015,06,17,03,18,14.00
2015,06,17,03,19,14.00
2015,06,17,03,20,14.00
2015,06,17,03,21,13.90
2015,06,17,03,22,13.90
2015,06,17,03,23,13.90
2015,06,17,03,24,13.90
2015,06,17,03,25,13.80
2015,06,17,03,26,13.80
2015,06,17,03,27,13.80
2015,06,17,03,28,13.80
2015,06,17,03,29,13.80
2015,06,17,03,30,13.80
2015,06,17,03,31,13.80
2015,06,17,03,32,13.80
2015,06,17,03,33,13.70
2015,06,17,03,34,13.70
2015,06,17,03,35,13.70
2015,06,17,03,36,13.70
2015,06,17,03,37,13.70
2015,06,17,03,38,13.70
2015,06,17,03,39,13.70
2015,06,17,03,40,13.70
2015,06,17,03,41,13.70
2015,06,17,03,42,13.60
2015,06,17,03,43,13.60
2015,06,17,03,44,13.60
2015,06,17,03,45,13.60
2015,06,17,03,46,13.60
2015,06,17,03,47,13.60
2015,06,17,03,48,13.60
2015,06,17,03,49,13.60
2015,06,17,03,50,13.60
2015,06,17,03,51,13.60
2015,06,17,03,52,13.60
2015,06,17,03,53,13.60
2015,06,17,03,54,13.50
2015,06,17,03,55,13.50
2015,06,17,03,56,13.50
2015,06,17,03,57,13.50
2015,06,17,03,58,13.40
2015,06,17,03,59,13.40
2015,06,17,04,00,13.40
2015,06,17,04,01,13.30
2015,06,17,04,02,13.30
2015,06,17,04,03,13.30
2015,06,17,04,04,13.30
2015,06,17,04,05,13.30
2015,06,17,04,06,13.20
2015,06,17,04,07,13.20
2015,06,17,04,08,13.20
2015,06,17,04,09,13.20
2015,06,17,04,10,13.20
2015,06,17,04,11,13.10
2015,06,17,04,12,13.10
2015,06,17,04,13,13.10
2015,06,17,04,14,13.10
2015,06,17,04,15,13.00
2015,06,17,04,16,13.00
2015,06,17,04,17,13.00
2015,06,17,04,18,13.00
2015,06,17,04,19,12.90
2015,06,17,04,20,12.90
2015,06,17,04,21,12.90
2015,06,17,04,22,12.90
2015,06,17,04,23,12.90
2015,06,17,04,24,12.80
2015,06,17,04,25,12.90
2015,06,17,04,26,12.90
2015,06,17,04,27,12.90
2015,06,17,04,28,12.90
2015,06,17,04,29,12.80
2015,06,17,04,30,12.80
2015,06,17,04,31,12.90
2015,06,17,04,32,12.90
2015,06,17,04,33,12.80
2015,06,17,04,34,12.90
2015,06,17,04,35,12.90
2015,06,17,04,36,12.90
2015,06,17,04,37,12.90
2015,06,17,04,38,12.90
2015,06,17,04,39,12.90
2015,06,17,04,40,12.80
2015,06,17,04,41,12.80
2015,06,17,04,42,12.80
2015,06,17,04,43,12.80
2015,06,17,04,44,12.80
2015,06,17,04,45,12.80
2015,06,17,04,46,12.80
2015,06,17,04,47,12.80
2015,06,17,04,48,12.70
2015,06,17,04,49,12.70
2015,06,17,04,50,12.70
2015,06,17,04,51,12.70
2015,06,17,04,52,12.70
2015,06,17,04,53,12.70
2015,06,17,04,54,12.70
2015,06,17,04,55,12.60
2015,06,17,04,56,12.60
2015,06,17,04,57,12.60
2015,06,17,04,58,12.60
2015,06,17,04,59,12.60
2015,06,17,05,00,12.60
2015,06,17,05,01,12.60
2015,06,17,05,02,12.50
2015,06,17,05,03,12.50
2015,06,17,05,04,12.50
2015,06,17,05,05,12.50
2015,06,17,05,06,12.60
2015,06,17,05,07,12.60
2015,06,17,05,08,12.60
2015,06,17,05,09,12.60
2015,06,17,05,10,12.70
2015,06,17,05,11,12.70
2015,06,17,05,12,12.70
2015,06,17,05,13,12.70
2015,06,17,05,14,12.80
2015,06,17,05,15,12.80
2015,06,17,05,16,12.80
2015,06,17,05,17,12.80
2015,06,17,05,18,12.90
2015,06,17,05,19,12.90
2015,06,17,05,20,12.90
2015,06,17,05,21,12.90
2015,06,17,05,22,13.00
2015,06,17,05,23,13.00
2015,06,17,05,24,13.00
2015,06,17,05,25,13.00
2015,06,17,05,26,13.10
2015,06,17,05,27,13.10
2015,06,17,05,28,13.10
2015,06,17,05,29,13.10
2015,06,17,05,30,13.10
2015,06,17,05,31,13.10
2015,06,17,05,32,13.20
2015,06,17,05,33,13.20
2015,06,17,05,34,13.20
2015,06,17,05,35,13.20
2015,06,17,05,36,13.30
2015,06,17,05,37,13.30
2015,06,17,05,38,13.40
2015,06,17,05,39,13.40
2015,06,17,05,40,13.40
2015,06,17,05,41,13.40
2015,06,17,05,42,13.50
2015,06,17,05,43,13.50
2015,06,17,05,44,13.60
2015,06,17,05,45,13.60
2015,06,17,05,46,13.60
2015,06,17,05,47,13.70
2015,06,17,05,48,13.70
2015,06,17,05,49,13.70
2015,06,17,05,50,13.70
2015,06,17,05,51,13.70
2015,06,17,05,52,13.80
2015,06,17,05,53,13.80
2015,06,17,05,54,13.80
2015,06,17,05,55,13.80
2015,06,17,05,56,13.80
2015,06,17,05,57,13.80
2015,06,17,05,58,13.80
2015,06,17,05,59,13.80
2015,06,17,06,00,13.80
2015,06,17,06,01,13.80
2015,06,17,06,02,13.80
2015,06,17,06,03,13.80
2015,06,17,06,04,13.90
2015,06,17,06,05,13.90
2015,06,17,06,06,13.90
2015,06,17,06,07,13.90
2015,06,17,06,08,13.90
2015,06,17,06,09,13.90
2015,06,17,06,10,14.00
2015,06,17,06,11,14.00
2015,06,17,06,12,14.00
2015,06,17,06,13,14.00
2015,06,17,06,14,14.00
2015,06,17,06,15,14.10
2015,06,17,06,16,14.10
2015,06,17,06,17,14.10
2015,06,17,06,18,14.10
2015,06,17,06,19,14.20
2015,06,17,06,20,14.20
2015,06,17,06,21,14.20
2015,06,17,06,22,14.20
2015,06,17,06,23,14.20
2015,06,17,06,24,14.20
2015,06,17,06,25,14.20
2015,06,17,06,26,14.20
2015,06,17,06,27,14.20
2015,06,17,06,28,14.20
2015,06,17,06,29,14.20
2015,06,17,06,30,14.20
2015,06,17,06,31,14.10
2015,06,17,06,32,14.20
2015,06,17,06,33,14.10
2015,06,17,06,34,14.20
2015,06,17,06,35,14.20
2015,06,17,06,36,14.20
2015,06,17,06,37,14.20
2015,06,17,06,38,14.30
2015,06,17,06,39,14.30
2015,06,17,06,40,14.40
2015,06,17,06,41,14.40
2015,06,17,06,42,14.50
2015,06,17,06,43,14.50
2015,06,17,06,44,14.60
2015,06,17,06,45,14.70
2015,06,17,06,46,14.80
2015,06,17,06,47,14.90
2015,06,17,06,48,15.00
2015,06,17,06,49,15.10
2015,06,17,06,50,15.20
2015,06,17,06,51,15.30
2015,06,17,06,52,15.40
2015,06,17,06,53,15.40
2015,06,17,06,54,15.50
2015,06,17,06,55,15.60
2015,06,17,06,56,15.70
2015,06,17,06,57,15.70
2015,06,17,06,58,15.80
2015,06,17,06,59,15.90
2015,06,17,07,00,16.00
2015,06,17,07,01,16.10
2015,06,17,07,02,16.10
2015,06,17,07,03,16.20
2015,06,17,07,04,16.30
2015,06,17,07,05,16.40
2015,06,17,07,06,16.50
2015,06,17,07,07,16.60
2015,06,17,07,08,16.60
2015,06,17,07,09,16.60
2015,06,17,07,10,16.70
2015,06,17,07,11,16.60
2015,06,17,07,12,16.60
2015,06,17,07,13,16.60
2015,06,17,07,14,16.60
2015,06,17,07,15,16.60
2015,06,17,07,16,16.70
2015,06,17,07,17,16.70
2015,06,17,07,18,16.70
2015,06,17,07,19,16.80
2015,06,17,07,20,16.80
2015,06,17,07,21,16.80
2015,06,17,07,22,16.80
2015,06,17,07,23,16.80
2015,06,17,07,24,16.80
2015,06,17,07,25,16.90
2015,06,17,07,26,16.90
2015,06,17,07,27,16.90
2015,06,17,07,28,17.00
2015,06,17,07,29,17.00
2015,06,17,07,30,17.10
2015,06,17,07,31,17.00
2015,06,17,07,32,17.00
2015,06,17,07,33,17.00
2015,06,17,07,34,17.00
2015,06,17,07,35,17.00
2015,06,17,07,36,17.00
2015,06,17,07,37,17.10
2015,06,17,07,38,17.10
2015,06,17,07,39,17.10
2015,06,17,07,40,17.20
2015,06,17,07,41,17.20
2015,06,17,07,42,17.30
2015,06,17,07,43,17.30
2015,06,17,07,44,17.30
2015,06,17,07,45,17.40
2015,06,17,07,46,17.50
2015,06,17,07,47,17.60
2015,06,17,07,48,17.60
2015,06,17,07,49,17.60
2015,06,17,07,50,17.60
2015,06,17,07,51,17.60
2015,06,17,07,52,17.50
2015,06,17,07,53,17.40
2015,06,17,07,54,17.40
2015,06,17,07,55,17.40
2015,06,17,07,56,17.40
2015,06,17,07,57,17.30
2015,06,17,07,58,17.30
2015,06,17,07,59,17.40
2015,06,17,08,00,17.40
2015,06,17,08,01,17.50
2015,06,17,08,02,17.50
2015,06,17,08,03,17.60
2015,06,17,08,04,17.50
2015,06,17,08,05,17.50
2015,06,17,08,06,17.60
2015,06,17,08,07,17.60
2015,06,17,08,08,17.60
2015,06,17,08,09,17.70
2015,06,17,08,10,17.70
2015,06,17,08,11,17.60
2015,06,17,08,12,17.60
2015,06,17,08,13,17.50
2015,06,17,08,14,17.50
2015,06,17,08,15,17.50
2015,06,17,08,16,17.40
2015,06,17,08,17,17.30
2015,06,17,08,18,17.30
2015,06,17,08,19,17.30
2015,06,17,08,20,17.30
2015,06,17,08,21,17.30
2015,06,17,08,22,17.40
2015,06,17,08,23,17.30
2015,06,17,08,24,17.30
2015,06,17,08,25,17.30
2015,06,17,08,26,17.30
2015,06,17,08,27,17.30
2015,06,17,08,28,17.20
2015,06,17,08,29,17.20
2015,06,17,08,30,17.20
2015,06,17,08,31,17.30
2015,06,17,08,32,17.30
2015,06,17,08,33,17.40
2015,06,17,08,34,17.50
2015,06,17,08,35,17.50
2015,06,17,08,36,17.60
2015,06,17,08,37,17.70
2015,06,17,08,38,17.70
2015,06,17,08,39,17.60
2015,06,17,08,40,17.60
2015,06,17,08,41,17.60
2015,06,17,08,42,17.60
2015,06,17,08,43,17.60
2015,06,17,08,44,17.60
2015,06,17,08,45,17.60
2015,06,17,08,46,17.60
2015,06,17,08,47,17.60
2015,06,17,08,48,17.60
2015,06,17,08,49,17.60
2015,06,17,08,50,17.50
2015,06,17,08,51,17.50
2015,06,17,08,52,17.50
2015,06,17,08,53,17.50
2015,06,17,08,54,17.60
2015,06,17,08,55,17.60
2015,06,17,08,56,17.60
2015,06,17,08,57,17.60
2015,06,17,08,58,17.50
2015,06,17,08,59,17.50
2015,06,17,09,00,17.40
2015,06,17,09,01,17.30
2015,06,17,09,02,17.30
2015,06,17,09,03,17.30
2015,06,17,09,04,17.20
2015,06,17,09,05,17.20
2015,06,17,09,06,17.20
2015,06,17,09,07,17.10
2015,06,17,09,08,17.10
2015,06,17,09,09,17.10
2015,06,17,09,10,17.10
2015,06,17,09,11,17.10
2015,06,17,09,12,17.10
2015,06,17,09,13,17.10
2015,06,17,09,14,17.10
2015,06,17,09,15,17.10
2015,06,17,09,16,17.10
2015,06,17,09,17,17.10
2015,06,17,09,18,17.10
2015,06,17,09,19,17.10
2015,06,17,09,20,17.10
2015,06,17,09,21,17.10
2015,06,17,09,22,17.20
2015,06,17,09,23,17.30
2015,06,17,09,24,17.30
2015,06,17,09,25,17.30
2015,06,17,09,26,17.20
2015,06,17,09,27,17.20
2015,06,17,09,28,17.20
2015,06,17,09,29,17.10
2015,06,17,09,30,17.00
2015,06,17,09,31,17.00
2015,06,17,09,32,17.00
2015,06,17,09,33,17.00
2015,06,17,09,34,17.10
2015,06,17,09,35,17.10
2015,06,17,09,36,17.20
2015,06,17,09,37,17.20
2015,06,17,09,38,17.20
2015,06,17,09,39,17.30
2015,06,17,09,40,17.30
2015,06,17,09,41,17.40
2015,06,17,09,42,17.40
2015,06,17,09,43,17.40
2015,06,17,09,44,17.40
2015,06,17,09,45,17.40
2015,06,17,09,46,17.40
2015,06,17,09,47,17.30
2015,06,17,09,48,17.30
2015,06,17,09,49,17.30
2015,06,17,09,50,17.20
2015,06,17,09,51,17.20
2015,06,17,09,52,17.20
2015,06,17,09,53,17.10
2015,06,17,09,54,17.20
2015,06,17,09,55,17.20
2015,06,17,09,56,17.20
2015,06,17,09,57,17.30
2015,06,17,09,58,17.30
2015,06,17,09,59,17.30
2015,06,17,10,00,17.40
2015,06,17,10,01,17.40
2015,06,17,10,02,17.50
2015,06,17,10,03,17.50
2015,06,17,10,04,17.60
2015,06,17,10,05,17.60
2015,06,17,10,06,17.60
2015,06,17,10,07,17.60
2015,06,17,10,08,17.60
2015,06,17,10,09,17.60
2015,06,17,10,10,17.70
2015,06,17,10,11,17.80
2015,06,17,10,12,17.90
2015,06,17,10,13,17.90
2015,06,17,10,14,17.90
2015,06,17,10,15,18.00
2015,06,17,10,16,18.00
2015,06,17,10,17,18.10
2015,06,17,10,18,18.10
2015,06,17,10,19,18.10
2015,06,17,10,20,18.10
2015,06,17,10,21,18.10
2015,06,17,10,22,18.00
2015,06,17,10,23,18.00
2015,06,17,10,24,18.00
2015,06,17,10,25,18.00
2015,06,17,10,26,18.10
2015,06,17,10,27,18.10
2015,06,17,10,28,18.10
2015,06,17,10,29,18.20
2015,06,17,10,30,18.20
2015,06,17,10,31,18.20
2015,06,17,10,32,18.20
2015,06,17,10,33,18.20
2015,06,17,10,34,18.10
2015,06,17,10,35,18.20
2015,06,17,10,36,18.30
2015,06,17,10,37,18.30
2015,06,17,10,38,18.40
2015,06,17,10,39,18.30
2015,06,17,10,40,18.30
2015,06,17,10,41,18.20
2015,06,17,10,42,18.20
2015,06,17,10,43,18.30
2015,06,17,10,44,18.30
2015,06,17,10,45,18.20
2015,06,17,10,46,18.20
2015,06,17,10,47,18.20
2015,06,17,10,48,18.20
2015,06,17,10,49,18.20
2015,06,17,10,50,18.20
2015,06,17,10,51,18.20
2015,06,17,10,52,18.20
2015,06,17,10,53,18.20
2015,06,17,10,54,18.20
2015,06,17,10,55,18.10
2015,06,17,10,56,18.10
2015,06,17,10,57,18.00
2015,06,17,10,58,18.00
2015,06,17,10,59,18.00
2015,06,17,11,00,18.10
2015,06,17,11,01,18.10
2015,06,17,11,02,18.10
2015,06,17,11,03,18.20
2015,06,17,11,04,18.30
2015,06,17,11,05,18.30
2015,06,17,11,06,18.30
2015,06,17,11,07,18.40
2015,06,17,11,08,18.40
2015,06,17,11,09,18.40
2015,06,17,11,10,18.50
2015,06,17,11,11,18.50
2015,06,17,11,12,18.40
2015,06,17,11,13,18.40
2015,06,17,11,14,18.40
2015,06,17,11,15,18.30
2015,06,17,11,16,18.30
2015,06,17,11,17,18.40
2015,06,17,11,18,18.30
2015,06,17,11,19,18.40
2015,06,17,11,20,18.40
2015,06,17,11,21,18.40
2015,06,17,11,22,18.40
2015,06,17,11,23,18.30
2015,06,17,11,24,18.30
2015,06,17,11,25,18.30
2015,06,17,11,26,18.30
2015,06,17,11,27,18.30
2015,06,17,11,28,18.30
2015,06,17,11,29,18.30
2015,06,17,11,30,18.30
2015,06,17,11,31,18.30
2015,06,17,11,32,18.30
2015,06,17,11,33,18.30
2015,06,17,11,34,18.50
2015,06,17,11,35,18.60
2015,06,17,11,36,18.70
2015,06,17,11,37,18.80
2015,06,17,11,38,18.90
2015,06,17,11,39,19.00
2015,06,17,11,40,19.10
2015,06,17,11,41,19.10
2015,06,17,11,42,19.10
2015,06,17,11,43,19.20
2015,06,17,11,44,19.20
2015,06,17,11,45,19.30
2015,06,17,11,46,19.40
2015,06,17,11,47,19.40
2015,06,17,11,48,19.30
2015,06,17,11,49,19.30
2015,06,17,11,50,19.30
2015,06,17,11,51,19.20
2015,06,17,11,52,19.20
2015,06,17,11,53,19.20
2015,06,17,11,54,19.20
2015,06,17,11,55,19.20
2015,06,17,11,56,19.20
2015,06,17,11,57,19.10
2015,06,17,11,58,19.10
2015,06,17,11,59,19.00
2015,06,17,12,00,19.00
2015,06,17,12,01,19.00
2015,06,17,12,02,19.00
2015,06,17,12,03,18.90
2015,06,17,12,04,18.90
2015,06,17,12,05,18.90
2015,06,17,12,06,18.80
2015,06,17,12,07,18.70
2015,06,17,12,08,18.70
2015,06,17,12,09,18.70
2015,06,17,12,10,18.60
2015,06,17,12,11,18.50
2015,06,17,12,12,18.40
2015,06,17,12,13,18.30
2015,06,17,12,14,18.40
2015,06,17,12,15,18.50
2015,06,17,12,16,18.60
2015,06,17,12,17,18.70
2015,06,17,12,18,18.70
2015,06,17,12,19,18.80
2015,06,17,12,20,18.70
2015,06,17,12,21,18.70
2015,06,17,12,22,18.60
2015,06,17,12,23,18.40
2015,06,17,12,24,18.30
2015,06,17,12,25,18.30
2015,06,17,12,26,18.20
2015,06,17,12,27,18.20
2015,06,17,12,28,18.30
2015,06,17,12,29,18.30
2015,06,17,12,30,18.30
2015,06,17,12,31,18.30
2015,06,17,12,32,18.30
2015,06,17,12,33,18.30
2015,06,17,12,34,18.40
2015,06,17,12,35,18.60
2015,06,17,12,36,18.60
2015,06,17,12,37,18.70
2015,06,17,12,38,18.80
2015,06,17,12,39,18.80
2015,06,17,12,40,18.80
2015,06,17,12,41,18.70
2015,06,17,12,42,18.70
2015,06,17,12,43,18.60
2015,06,17,12,44,18.60
2015,06,17,12,45,18.60
2015,06,17,12,46,18.60
2015,06,17,12,47,18.70
2015,06,17,12,48,18.70
2015,06,17,12,49,18.80
2015,06,17,12,50,18.90
2015,06,17,12,51,19.00
2015,06,17,12,52,19.10
2015,06,17,12,53,19.20
2015,06,17,12,54,19.20
2015,06,17,12,55,19.30
2015,06,17,12,56,19.40
2015,06,17,12,57,19.50
2015,06,17,12,58,19.60
2015,06,17,12,59,19.60
2015,06,17,13,00,19.70
2015,06,17,13,01,19.80
2015,06,17,13,02,19.90
2015,06,17,13,03,20.00
2015,06,17,13,04,20.00
2015,06,17,13,05,20.10
2015,06,17,13,06,20.10
2015,06,17,13,07,20.00
2015,06,17,13,08,20.00
2015,06,17,13,09,20.00
2015,06,17,13,10,20.10
2015,06,17,13,11,20.10
2015,06,17,13,12,20.20
2015,06,17,13,13,20.20
2015,06,17,13,14,20.20
2015,06,17,13,15,20.10
2015,06,17,13,16,20.00
2015,06,17,13,17,20.00
2015,06,17,13,18,20.10
2015,06,17,13,19,20.10
2015,06,17,13,20,20.10
2015,06,17,13,21,20.10
2015,06,17,13,22,20.00
2015,06,17,13,23,20.00
2015,06,17,13,24,20.00
2015,06,17,13,25,20.00
2015,06,17,13,26,20.00
2015,06,17,13,27,20.10
2015,06,17,13,28,20.10
2015,06,17,13,29,20.20
2015,06,17,13,30,20.20
2015,06,17,13,31,20.10
2015,06,17,13,32,20.20
2015,06,17,13,33,20.20
2015,06,17,13,34,20.10
2015,06,17,13,35,20.10
2015,06,17,13,36,20.10
2015,06,17,13,37,20.20
2015,06,17,13,38,20.30
2015,06,17,13,39,20.40
2015,06,17,13,40,20.40
2015,06,17,13,41,20.40
2015,06,17,13,42,20.30
2015,06,17,13,43,20.30
2015,06,17,13,44,20.30
2015,06,17,13,45,20.40
2015,06,17,13,46,20.40
2015,06,17,13,47,20.40
2015,06,17,13,48,20.30
2015,06,17,13,49,20.30
2015,06,17,13,50,20.30
2015,06,17,13,51,20.30
2015,06,17,13,52,20.40
2015,06,17,13,53,20.40
2015,06,17,13,54,20.30
2015,06,17,13,55,20.30
2015,06,17,13,56,20.30
2015,06,17,13,57,20.30
2015,06,17,13,58,20.30
2015,06,17,13,59,20.20
2015,06,17,14,00,20.20
2015,06,17,14,01,20.20
2015,06,17,14,02,20.10
2015,06,17,14,03,20.10
2015,06,17,14,04,20.00
2015,06,17,14,05,20.10
2015,06,17,14,06,20.10
2015,06,17,14,07,20.10
2015,06,17,14,08,20.00
2015,06,17,14,09,20.00
2015,06,17,14,10,20.00
2015,06,17,14,11,19.90
2015,06,17,14,12,19.80
2015,06,17,14,13,19.70
2015,06,17,14,14,19.70
2015,06,17,14,15,19.60
2015,06,17,14,16,19.60
2015,06,17,14,17,19.60
2015,06,17,14,18,19.60
2015,06,17,14,19,19.50
2015,06,17,14,20,19.50
2015,06,17,14,21,19.40
2015,06,17,14,22,19.40
2015,06,17,14,23,19.40
2015,06,17,14,24,19.40
2015,06,17,14,25,19.40
2015,06,17,14,26,19.40
2015,06,17,14,27,19.40
2015,06,17,14,28,19.40
2015,06,17,14,29,19.40
2015,06,17,14,30,19.40
2015,06,17,14,31,19.40
2015,06,17,14,32,19.30
2015,06,17,14,33,19.30
2015,06,17,14,34,19.30
2015,06,17,14,35,19.30
2015,06,17,14,36,19.40
2015,06,17,14,37,19.50
2015,06,17,14,38,19.50
2015,06,17,14,39,19.60
2015,06,17,14,40,19.60
2015,06,17,14,41,19.60
2015,06,17,14,42,19.70
2015,06,17,14,43,19.80
2015,06,17,14,44,19.80
2015,06,17,14,45,19.80
2015,06,17,14,46,19.80
2015,06,17,14,47,19.80
2015,06,17,14,48,19.80
2015,06,17,14,49,19.80
2015,06,17,14,50,19.80
2015,06,17,14,51,19.80
2015,06,17,14,52,19.80
2015,06,17,14,53,19.80
2015,06,17,14,54,19.80
2015,06,17,14,55,19.80
2015,06,17,14,56,19.90
2015,06,17,14,57,19.90
2015,06,17,14,58,20.00
2015,06,17,14,59,20.10
2015,06,17,15,00,20.10
2015,06,17,15,01,20.10
2015,06,17,15,02,20.10
2015,06,17,15,03,20.10
2015,06,17,15,04,20.10
2015,06,17,15,05,20.10
2015,06,17,15,06,20.10
2015,06,17,15,07,20.20
2015,06,17,15,08,20.20
2015,06,17,15,09,20.30
2015,06,17,15,10,20.40
2015,06,17,15,11,20.50
2015,06,17,15,12,20.60
2015,06,17,15,13,20.60
2015,06,17,15,14,20.60
2015,06,17,15,15,20.60
2015,06,17,15,16,20.60
2015,06,17,15,17,20.60
2015,06,17,15,18,20.70
2015,06,17,15,19,20.70
2015,06,17,15,20,20.70
2015,06,17,15,21,20.70
2015,06,17,15,22,20.80
2015,06,17,15,23,20.80
2015,06,17,15,24,20.80
2015,06,17,15,25,20.80
2015,06,17,15,26,20.80
2015,06,17,15,27,20.70
2015,06,17,15,28,20.70
2015,06,17,15,29,20.70
2015,06,17,15,30,20.60
2015,06,17,15,31,20.60
2015,06,17,15,32,20.60
2015,06,17,15,33,20.70
2015,06,17,15,34,20.70
2015,06,17,15,35,20.80
2015,06,17,15,36,20.80
2015,06,17,15,37,20.80
2015,06,17,15,38,20.80
2015,06,17,15,39,20.80
2015,06,17,15,40,20.80
2015,06,17,15,41,20.80
2015,06,17,15,42,20.80
2015,06,17,15,43,20.70
2015,06,17,15,44,20.70
2015,06,17,15,45,20.70
2015,06,17,15,46,20.70
2015,06,17,15,47,20.70
2015,06,17,15,48,20.70
2015,06,17,15,49,20.80
2015,06,17,15,50,20.80
2015,06,17,15,51,20.80
2015,06,17,15,52,20.80
2015,06,17,15,53,20.80
2015,06,17,15,54,20.80
2015,06,17,15,55,20.80
2015,06,17,15,56,20.80
2015,06,17,15,57,20.80
2015,06,17,15,58,20.80
2015,06,17,15,59,20.80
2015,06,17,16,00,20.80
2015,06,17,16,01,20.80
2015,06,17,16,02,20.80
2015,06,17,16,03,20.80
2015,06,17,16,04,20.80
2015,06,17,16,05,20.80
2015,06,17,16,06,20.80
2015,06,17,16,07,20.70
2015,06,17,16,08,20.70
2015,06,17,16,09,20.70
2015,06,17,16,10,20.70
2015,06,17,16,11,20.80
2015,06,17,16,12,20.80
2015,06,17,16,13,20.90
2015,06,17,16,14,21.00
2015,06,17,16,15,21.00
2015,06,17,16,16,21.10
2015,06,17,16,17,21.10
2015,06,17,16,18,21.10
2015,06,17,16,19,21.10
2015,06,17,16,20,21.10
2015,06,17,16,21,21.10
2015,06,17,16,22,21.10
2015,06,17,16,23,21.10
2015,06,17,16,24,21.10
2015,06,17,16,25,21.20
2015,06,17,16,26,21.20
2015,06,17,16,27,21.10
2015,06,17,16,28,21.10
2015,06,17,16,29,21.00
2015,06,17,16,30,21.00
2015,06,17,16,31,21.00
2015,06,17,16,32,21.00
2015,06,17,16,33,21.10
2015,06,17,16,34,21.10
2015,06,17,16,35,21.10
2015,06,17,16,36,21.10
2015,06,17,16,37,21.10
2015,06,17,16,38,21.10
2015,06,17,16,39,21.10
2015,06,17,16,40,21.10
2015,06,17,16,41,21.10
2015,06,17,16,42,21.10
2015,06,17,16,43,21.10
2015,06,17,16,44,21.10
2015,06,17,16,45,21.10
2015,06,17,16,46,21.10
2015,06,17,16,47,21.10
2015,06,17,16,48,21.10
2015,06,17,16,49,21.20
2015,06,17,16,50,21.20
2015,06,17,16,51,21.20
2015,06,17,16,52,21.30
2015,06,17,16,53,21.30
2015,06,17,16,54,21.30
2015,06,17,16,55,21.30
2015,06,17,16,56,21.40
2015,06,17,16,57,21.40
2015,06,17,16,58,21.40
2015,06,17,16,59,21.40
2015,06,17,17,00,21.40
2015,06,17,17,01,21.40
2015,06,17,17,02,21.40
2015,06,17,17,03,21.50
2015,06,17,17,04,21.50
2015,06,17,17,05,21.60
2015,06,17,17,06,21.60
2015,06,17,17,07,21.50
2015,06,17,17,08,21.50
2015,06,17,17,09,21.50
2015,06,17,17,10,21.40
2015,06,17,17,11,21.50
2015,06,17,17,12,21.50
2015,06,17,17,13,21.60
2015,06,17,17,14,21.60
2015,06,17,17,15,21.70
2015,06,17,17,16,21.70
2015,06,17,17,17,21.70
2015,06,17,17,18,21.70
2015,06,17,17,19,21.70